LEOPARD

Last updated on Sun Jun 21 2026 00:02:11 GMT+0000 (Coordinated Universal Time)

1 67687U 98067YD 26170.68308358 .00046865 00000+0 54542-3 0 9992 2 67687 51.6303 281.4932 0005803 207.7967 152.2717 15.61203925 20592
UTC large
Height (km)
Speed (km/s)
/
Latitude / Longitude
Inclination (degrees)
Orbital Period (minutes)
Azimuth
Elevation
Range (km)
Doppler Factor

Next 0 passes for location: London (51.5072 / 0.1276)

No passes found over London.
LEOPARD